Time[GMT],air_temperature[C](-4m),wind_speed[m/s](-4m),wind_gust[m/s](-4m),barometric_pressure[millibars](-2m),relative_humidity[C](-4m),wind_direction[degrees_true](-4m)
2017-08-12 17:00,29.3,7.2,8.1,1016.92,,105.45
2017-08-12 17:10,29.2,6.8,7.9,1016.91,,107.45
2017-08-12 17:20,29.3,6.6,7.8,1016.92,,107.45
2017-08-12 17:30,29.2,6.7,8.3,1016.83,,114.45
2017-08-12 17:40,29.2,7.0,8.3,1016.76,,110.45
2017-08-12 17:50,29.2,6.7,8.0,1016.71,,108.45
2017-08-12 18:00,29.3,6.4,7.4,1016.61,,109.45
2017-08-12 18:10,29.2,6.2,7.5,1016.54,,110.45
2017-08-12 18:20,29.3,5.9,6.8,1016.50,,116.45
2017-08-12 18:30,29.3,5.7,6.8,1016.44,,112.45
2017-08-12 18:40,29.3,5.5,6.9,1016.44,,103.45
2017-08-12 18:50,29.3,5.8,6.6,1016.32,,105.45
2017-08-12 19:00,29.4,5.8,6.7,1016.27,,104.45
2017-08-12 19:10,29.4,5.6,6.6,1016.26,,105.45
2017-08-12 19:20,29.4,5.5,6.5,1016.19,,109.45
2017-08-12 19:30,29.5,5.8,6.7,1016.10,,108.45
2017-08-12 19:40,29.5,5.6,6.6,1016.06,,106.45
2017-08-12 19:50,29.5,5.4,6.6,1015.98,,112.45
2017-08-12 20:00,29.4,5.3,6.1,1016.04,,112.45
2017-08-12 20:10,29.4,5.1,5.7,1015.94,,108.45
2017-08-12 20:20,29.4,4.9,5.9,1016.03,,103.45
2017-08-12 20:30,29.4,5.0,6.0,1016.03,,98.45
2017-08-12 20:40,29.4,5.6,6.3,1016.07,,92.45
2017-08-12 20:50,29.3,5.4,6.6,1016.16,,96.45
2017-08-12 21:00,29.3,4.8,5.6,1016.13,,100.45
2017-08-12 21:10,29.3,4.6,5.2,1016.11,,99.45
2017-08-12 21:20,29.3,4.2,5.0,1016.13,,101.45
2017-08-12 21:30,29.4,4.3,4.9,1016.17,,102.45
2017-08-12 21:40,29.4,3.8,4.9,1016.17,,113.45
2017-08-12 21:50,29.3,3.8,4.7,1016.24,,108.45
2017-08-12 22:00,29.4,3.9,4.8,1016.24,,91.45
2017-08-12 22:10,29.0,4.4,5.6,1016.29,,82.45
2017-08-12 22:20,29.0,4.5,5.5,1016.23,,89.45
2017-08-12 22:30,29.0,4.6,6.4,1016.20,,92.45
2017-08-12 22:40,28.9,4.9,6.1,1016.17,,115.45
2017-08-12 22:50,29.0,4.8,5.9,1016.27,,105.45
2017-08-12 23:00,29.0,5.0,6.7,1016.27,,107.45
2017-08-12 23:10,28.7,5.1,6.7,1016.33,,113.45
2017-08-12 23:20,28.7,4.6,5.7,1016.32,,108.45
2017-08-12 23:30,28.9,4.9,6.4,1016.30,,111.45
2017-08-12 23:40,28.9,6.1,7.1,1016.34,,102.45
2017-08-12 23:50,28.9,5.0,6.6,1016.43,,108.45
2017-08-13 00:00,28.9,6.0,7.2,1016.56,,94.45
2017-08-13 00:10,28.8,6.5,7.5,1016.62,,99.45
2017-08-13 00:20,28.8,6.6,8.1,1016.76,,100.45
2017-08-13 00:30,28.9,6.9,8.2,1016.74,,99.45
2017-08-13 00:40,28.8,6.8,7.8,1016.80,,98.45
2017-08-13 00:50,28.8,6.8,7.8,1016.93,,99.45
2017-08-13 01:00,28.8,6.8,8.1,1017.03,,104.45
2017-08-13 01:10,28.9,6.1,7.3,1017.09,,107.45
2017-08-13 01:20,28.9,5.7,7.0,1017.22,,107.45
2017-08-13 01:30,28.8,6.0,7.5,1017.36,,99.45
2017-08-13 01:40,28.8,6.1,7.3,1017.47,,98.45
2017-08-13 01:50,28.8,5.9,6.8,1017.53,,97.45
2017-08-13 02:00,28.8,6.1,7.3,1017.55,,97.45
2017-08-13 02:10,28.7,6.0,6.9,1017.65,,101.45
2017-08-13 02:20,28.7,6.3,7.8,1017.60,,103.45
2017-08-13 02:30,28.7,6.1,7.2,1017.68,,97.45
2017-08-13 02:40,28.7,5.9,7.0,1017.77,,104.45
2017-08-13 02:50,28.7,5.7,6.8,1017.85,,101.45
2017-08-13 03:00,28.8,5.8,6.9,1017.86,,97.45
2017-08-13 03:10,28.7,6.1,7.2,1017.78,,98.45
2017-08-13 03:20,28.8,6.0,7.2,1017.65,,108.45
2017-08-13 03:30,28.7,6.0,7.2,1017.54,,105.45
2017-08-13 03:40,28.7,6.4,7.8,1017.47,,103.45
2017-08-13 03:50,28.7,5.8,6.7,1017.43,,105.45
2017-08-13 04:00,28.6,5.9,7.1,1017.38,,102.45
2017-08-13 04:10,28.6,6.4,7.3,1017.34,,102.45
2017-08-13 04:20,28.6,6.0,7.1,1017.21,,104.45
2017-08-13 04:30,28.6,5.8,6.8,1017.23,,97.45
2017-08-13 04:40,28.6,5.8,6.8,1017.15,,100.45
2017-08-13 04:50,28.6,5.8,7.2,1017.11,,97.45
2017-08-13 05:00,28.7,5.6,6.7,1017.10,,101.45
2017-08-13 05:10,28.6,5.8,6.8,1017.13,,94.45
2017-08-13 05:20,28.6,5.4,6.7,1017.17,,98.45
2017-08-13 05:30,28.6,5.6,7.1,1017.13,,92.45
2017-08-13 05:40,28.6,5.5,6.9,1017.06,,87.45
2017-08-13 05:50,28.6,5.7,6.7,1017.00,,82.45
2017-08-13 06:00,28.6,5.4,6.4,1016.92,,88.45
2017-08-13 06:10,28.6,6.0,7.4,1016.80,,86.45
2017-08-13 06:20,28.6,5.9,7.6,1016.73,,85.45
2017-08-13 06:30,28.6,5.6,6.6,1016.72,,88.45
2017-08-13 06:40,28.5,5.2,6.7,1016.76,,85.45
2017-08-13 06:50,28.4,4.8,7.1,1016.70,,88.45
2017-08-13 07:00,28.5,6.2,7.3,1016.62,,86.45
2017-08-13 07:10,28.5,6.2,7.6,1016.57,,88.45
2017-08-13 07:20,28.5,6.0,7.3,1016.52,,93.45
2017-08-13 07:30,28.6,5.6,6.7,1016.57,,89.45
2017-08-13 07:40,28.6,4.8,6.3,1016.62,,99.45
2017-08-13 07:50,28.5,4.6,5.8,1016.61,,89.45
2017-08-13 08:00,28.5,4.9,6.6,1016.72,,89.45
2017-08-13 08:10,28.5,4.8,6.1,1016.72,,87.45
2017-08-13 08:20,28.6,5.6,7.3,1016.72,,84.45
2017-08-13 08:30,28.1,6.3,7.8,1016.76,,79.45
2017-08-13 08:40,28.0,6.5,7.6,1016.79,,76.45
2017-08-13 08:50,28.0,6.1,7.1,1016.83,,82.45
2017-08-13 09:00,28.1,6.0,7.2,1016.85,,82.45
2017-08-13 09:10,28.1,5.6,6.5,1016.92,,81.45
2017-08-13 09:20,28.2,5.5,6.7,1016.96,,85.45
2017-08-13 09:30,28.3,5.4,6.2,1017.03,,87.45
2017-08-13 09:40,28.3,5.3,6.3,1017.04,,88.45
2017-08-13 09:50,28.3,5.2,6.2,1017.05,,92.45
2017-08-13 10:00,28.3,5.0,6.0,1017.08,,87.45
2017-08-13 10:10,28.3,5.3,6.5,1017.16,,93.45
2017-08-13 10:20,28.4,5.4,6.6,1017.25,,92.45
2017-08-13 10:30,28.4,5.6,6.5,1017.41,,89.45
2017-08-13 10:40,28.4,5.9,7.4,1017.53,,81.45
2017-08-13 10:50,28.5,6.0,7.1,1017.54,,83.45
2017-08-13 11:00,28.6,6.5,7.9,1017.55,,87.45
2017-08-13 11:10,28.7,6.2,7.3,1017.64,,86.45
2017-08-13 11:20,28.7,6.4,7.6,1017.72,,85.45
2017-08-13 11:30,28.8,6.5,7.6,1017.81,,86.45
2017-08-13 11:40,28.7,6.2,7.3,1017.94,,85.45
2017-08-13 11:50,28.6,6.7,7.6,1017.98,,78.45
2017-08-13 12:00,28.5,6.8,8.1,1017.99,,78.45
2017-08-13 12:10,28.6,6.7,7.8,1018.06,,82.45
2017-08-13 12:20,28.7,6.8,8.1,1018.18,,84.45
2017-08-13 12:30,28.6,6.6,8.2,1018.25,,86.45
2017-08-13 12:40,28.8,7.0,8.4,1018.38,,93.45
2017-08-13 12:50,28.8,7.4,8.7,1018.45,,87.45
2017-08-13 13:00,28.8,6.9,8.5,1018.47,,90.45
2017-08-13 13:10,28.6,7.5,8.7,1018.46,,88.45
2017-08-13 13:20,28.7,7.2,8.6,1018.59,,86.45
2017-08-13 13:30,28.6,7.1,8.5,1018.63,,93.45
2017-08-13 13:40,28.6,6.6,7.7,1018.66,,92.45
2017-08-13 13:50,28.6,6.5,7.8,1018.70,,95.45
2017-08-13 14:00,28.6,6.9,8.3,1018.78,,95.45
2017-08-13 14:10,28.6,6.6,7.8,1018.77,,93.45
2017-08-13 14:20,28.6,6.8,8.3,1018.79,,94.45
2017-08-13 14:30,28.6,6.3,7.6,1018.76,,94.45
2017-08-13 14:40,28.5,6.7,8.1,1018.78,,89.45
2017-08-13 14:50,28.5,6.2,8.4,1018.73,,87.45
2017-08-13 15:00,28.8,7.6,9.5,1018.69,,93.45
2017-08-13 15:10,28.7,7.5,9.1,1018.49,,89.45
2017-08-13 15:20,28.7,7.8,9.2,1018.36,,95.45
2017-08-13 15:30,28.8,7.7,9.2,1018.28,,92.45
2017-08-13 15:40,28.7,7.6,9.2,1018.18,,93.45
2017-08-13 15:50,28.7,7.5,8.9,1018.18,,90.45
2017-08-13 16:00,28.7,7.2,8.6,1018.13,,89.45
2017-08-13 16:10,28.7,7.4,9.3,1018.02,,91.45
2017-08-13 16:20,28.7,7.8,9.0,1017.95,,88.45
2017-08-13 16:30,28.8,7.3,8.7,1017.91,,89.45
2017-08-13 16:40,28.8,7.4,9.0,1017.88,,91.45
2017-08-13 16:50,28.7,7.5,9.4,1017.77,,82.45
2017-08-13 17:00,28.7,7.0,8.2,1017.68,,80.45
2017-08-13 17:10,28.7,7.0,8.6,1017.64,,84.45
2017-08-13 17:20,28.8,7.0,8.3,1017.54,,86.45
2017-08-13 17:30,28.8,6.8,8.1,1017.46,,87.45
2017-08-13 17:40,28.8,6.9,8.1,1017.38,,85.45
2017-08-13 17:50,28.8,6.6,7.9,1017.26,,87.45
2017-08-13 18:00,28.9,6.9,8.3,1017.08,,85.45
2017-08-13 18:10,28.9,6.6,7.8,1016.92,,86.45
2017-08-13 18:20,28.9,6.5,7.5,1016.76,,87.45
2017-08-13 18:30,28.9,6.1,7.1,1016.67,,81.45
2017-08-13 18:40,28.9,6.2,7.2,1016.61,,81.45
2017-08-13 18:50,28.9,6.6,7.7,1016.47,,84.45
2017-08-13 19:00,28.9,6.4,7.4,1016.43,,85.45
2017-08-13 19:10,28.9,6.5,7.6,1016.38,,82.45
2017-08-13 19:20,28.8,6.4,7.6,1016.29,,79.45
2017-08-13 19:30,28.8,6.6,7.6,1016.28,,84.45
2017-08-13 19:40,28.9,6.8,8.0,1016.23,,84.45
2017-08-13 19:50,28.9,7.0,8.1,1016.19,,84.45
2017-08-13 20:00,28.9,7.1,8.2,1016.18,,82.45
2017-08-13 20:10,28.8,7.2,8.2,1016.15,,79.45
2017-08-13 20:20,28.9,6.7,7.8,1016.09,,79.45
2017-08-13 20:30,28.9,7.0,8.2,1016.04,,85.45
2017-08-13 20:40,29.0,6.6,7.8,1016.05,,85.45
2017-08-13 20:50,28.9,6.5,7.6,1016.09,,82.45
2017-08-13 21:00,28.9,6.7,7.6,1016.17,,84.45
2017-08-13 21:10,28.9,6.6,7.6,1016.20,,85.45
2017-08-13 21:20,28.9,6.4,7.5,1016.21,,89.45
2017-08-13 21:30,28.9,6.3,7.6,1016.30,,85.45
2017-08-13 21:40,28.9,6.6,7.6,1016.40,,85.45
2017-08-13 21:50,29.0,6.5,7.6,1016.48,,87.45
2017-08-13 22:00,29.0,6.5,7.8,1016.45,,86.45
2017-08-13 22:10,28.9,7.0,8.0,1016.51,,82.45
2017-08-13 22:20,28.9,6.8,8.1,1016.54,,85.45
2017-08-13 22:30,28.8,6.9,8.2,1016.61,,82.45
2017-08-13 22:40,28.8,6.8,7.9,1016.66,,80.45
2017-08-13 22:50,28.9,6.8,8.2,1016.73,,85.45
2017-08-13 23:00,28.9,7.0,8.2,1016.81,,80.45
2017-08-13 23:10,28.9,6.5,7.8,1016.87,,82.45
2017-08-13 23:20,28.9,6.4,7.6,1016.92,,85.45
2017-08-13 23:30,28.9,6.7,7.7,1016.94,,85.45
2017-08-13 23:40,28.9,6.6,7.5,1017.02,,84.45
2017-08-13 23:50,28.9,6.9,8.4,1017.09,,88.45
2017-08-14 00:00,28.8,7.5,9.1,1017.12,,90.45
2017-08-14 00:10,28.9,8.0,9.3,1017.14,,90.45
2017-08-14 00:20,28.9,7.8,9.4,1017.22,,91.45
2017-08-14 00:30,28.9,7.6,9.0,1017.30,,89.45
2017-08-14 00:40,29.0,7.6,8.8,1017.42,,88.45
2017-08-14 00:50,28.9,7.0,8.2,1017.57,,88.45
2017-08-14 01:00,28.9,7.2,8.7,1017.64,,87.45
2017-08-14 01:10,28.9,7.2,8.5,1017.70,,87.45
2017-08-14 01:20,28.9,7.5,9.0,1017.69,,88.45
2017-08-14 01:30,28.9,7.5,8.6,1017.77,,86.45
2017-08-14 01:40,28.9,7.3,8.6,1017.85,,85.45
2017-08-14 01:50,28.9,7.5,9.2,1017.87,,86.45
2017-08-14 02:00,28.9,8.3,10.0,1017.94,,85.45
2017-08-14 02:10,29.0,7.9,9.1,1018.03,,92.45
2017-08-14 02:20,28.9,7.7,8.8,1018.00,,92.45
2017-08-14 02:30,28.9,8.0,9.7,1018.04,,91.45
2017-08-14 02:40,28.9,7.7,9.1,1018.10,,89.45
2017-08-14 02:50,28.9,7.6,9.3,1018.08,,89.45
2017-08-14 03:00,28.9,7.5,9.0,1018.05,,88.45
2017-08-14 03:10,28.8,7.7,8.8,1018.07,,89.45
2017-08-14 03:20,28.8,8.2,9.6,1017.94,,88.45
2017-08-14 03:30,28.9,8.2,9.7,1017.89,,92.45
2017-08-14 03:40,28.8,8.2,9.7,1017.77,,98.45
2017-08-14 03:50,28.8,8.3,10.0,1017.67,,98.45
2017-08-14 04:00,28.7,8.0,9.4,1017.71,,85.45
2017-08-14 04:10,28.4,8.1,9.7,1017.69,,88.45
2017-08-14 04:20,28.5,6.9,8.5,1017.59,,93.45
2017-08-14 04:30,28.5,6.5,7.7,1017.54,,92.45
2017-08-14 04:40,28.6,6.9,8.5,1017.51,,89.45
2017-08-14 04:50,28.7,7.2,8.4,1017.48,,93.45
2017-08-14 05:00,28.7,7.1,8.9,1017.42,,92.45
2017-08-14 05:10,28.7,6.7,8.8,1017.35,,94.45
2017-08-14 05:20,28.7,7.8,9.0,1017.22,,91.45
2017-08-14 05:30,28.6,7.0,8.6,1017.19,,96.45
2017-08-14 05:40,28.5,6.5,7.5,1017.11,,87.45
2017-08-14 05:50,28.7,7.0,8.5,1017.14,,88.45
2017-08-14 06:00,28.8,7.3,8.6,1017.08,,92.45
2017-08-14 06:10,28.7,7.0,8.4,1017.04,,91.45
2017-08-14 06:20,28.7,6.7,8.2,1016.90,,89.45
2017-08-14 06:30,28.6,7.2,8.5,1016.80,,93.45
2017-08-14 06:40,28.7,7.6,9.0,1016.67,,90.45
2017-08-14 06:50,28.8,7.4,8.9,1016.52,,97.45
2017-08-14 07:00,28.3,8.0,9.5,1016.50,,77.45
2017-08-14 07:10,28.2,7.0,8.6,1016.50,,77.45
2017-08-14 07:20,28.3,6.1,7.6,1016.45,,85.45
2017-08-14 07:30,28.4,6.6,8.7,1016.39,,85.45
2017-08-14 07:40,28.7,7.6,9.2,1016.34,,86.45
2017-08-14 07:50,28.7,7.1,8.6,1016.26,,85.45
2017-08-14 08:00,28.6,7.2,8.8,1016.20,,90.45
2017-08-14 08:10,28.7,7.2,9.0,1016.19,,85.45
2017-08-14 08:20,28.4,6.8,8.9,1016.18,,82.45
2017-08-14 08:30,28.4,7.3,8.5,1016.18,,89.45
2017-08-14 08:40,28.4,7.0,8.1,1016.24,,86.45
2017-08-14 08:50,28.4,6.4,7.7,1016.32,,90.45
2017-08-14 09:00,28.4,6.9,8.2,1016.52,,84.45
2017-08-14 09:10,28.5,6.8,7.9,1016.59,,89.45
2017-08-14 09:20,28.5,6.2,7.3,1016.65,,91.45
2017-08-14 09:30,28.5,6.0,7.3,1016.68,,93.45
2017-08-14 09:40,28.5,6.2,8.8,1016.69,,96.45
2017-08-14 09:50,28.6,7.8,9.1,1016.69,,96.45
2017-08-14 10:00,28.5,7.3,11.3,1016.73,,88.45
2017-08-14 10:10,28.6,7.1,8.6,1016.72,,96.45
2017-08-14 10:20,28.6,6.7,7.5,1016.75,,108.45
2017-08-14 10:30,28.5,8.1,10.1,1016.76,,102.45
2017-08-14 10:40,28.6,7.9,9.6,1016.77,,102.45
2017-08-14 10:50,28.6,7.9,9.5,1016.73,,101.45
2017-08-14 11:00,28.6,7.9,9.8,1016.69,,98.45
2017-08-14 11:10,28.7,8.0,9.6,1016.73,,98.45
2017-08-14 11:20,28.8,8.1,9.6,1016.80,,95.45
2017-08-14 11:30,28.8,7.9,9.8,1016.88,,101.45
2017-08-14 11:40,28.8,7.7,9.3,1016.88,,101.45
2017-08-14 11:50,28.7,7.5,8.6,1016.89,,95.45
2017-08-14 12:00,28.8,7.6,8.9,1016.98,,95.45
2017-08-14 12:10,28.8,7.9,10.2,1017.05,,103.45
2017-08-14 12:20,28.9,8.7,10.7,1017.11,,103.45
2017-08-14 12:30,28.8,8.1,9.7,1017.16,,105.45
2017-08-14 12:40,28.9,7.3,9.0,1017.25,,103.45
2017-08-14 12:50,28.6,8.5,11.3,1017.34,,94.45
2017-08-14 13:00,28.6,7.8,9.6,1017.39,,94.45
2017-08-14 13:10,28.8,8.0,9.6,1017.36,,99.45
2017-08-14 13:20,28.8,8.8,10.6,1017.36,,93.45
2017-08-14 13:30,28.8,8.4,10.1,1017.43,,93.45
2017-08-14 13:40,28.8,8.3,10.0,1017.42,,91.45
2017-08-14 13:50,29.0,7.7,9.6,1017.52,,95.45
2017-08-14 14:00,28.9,7.7,9.3,1017.52,,95.45
2017-08-14 14:10,28.9,8.3,10.0,1017.52,,90.45
2017-08-14 14:20,28.9,7.9,9.5,1017.54,,90.45
2017-08-14 14:30,28.9,7.9,9.1,1017.57,,92.45
2017-08-14 14:40,28.8,8.0,9.6,1017.51,,89.45
2017-08-14 14:50,28.8,8.0,9.3,1017.45,,86.45
2017-08-14 15:00,28.9,7.9,9.5,1017.49,,90.45
2017-08-14 15:10,28.8,8.0,9.2,1017.46,,90.45
2017-08-14 15:20,28.9,8.0,9.4,1017.40,,89.45
2017-08-14 15:30,28.9,7.6,8.8,1017.33,,86.45
2017-08-14 15:40,28.9,7.7,9.1,1017.33,,83.45
2017-08-14 15:50,28.9,7.4,8.5,1017.26,,85.45
2017-08-14 16:00,28.9,7.6,9.0,1017.07,,86.45
2017-08-14 16:10,28.9,7.6,9.4,1016.92,,88.45
2017-08-14 16:20,28.9,7.6,8.9,1016.84,,90.45
2017-08-14 16:30,28.9,7.7,9.4,1016.78,,85.45
2017-08-14 16:40,28.9,7.9,9.1,1016.61,,84.45
2017-08-14 16:50,28.7,8.0,10.1,1016.60,,91.45
2017-08-14 17:00,28.6,7.5,9.0,1016.50,,90.45
2017-08-14 17:10,28.7,7.7,9.0,1016.39,,85.45
2017-08-14 17:20,28.6,7.2,8.6,1016.33,,80.45
2017-08-14 17:30,28.6,7.0,8.4,1016.20,,77.45
2017-08-14 17:40,28.7,6.9,8.7,1016.07,,78.45
2017-08-14 17:50,28.8,8.4,9.8,1015.87,,83.45
2017-08-14 18:00,28.3,7.7,9.7,1015.82,,78.45
2017-08-14 18:10,28.4,7.3,8.5,1015.82,,77.45
2017-08-14 18:20,28.6,7.4,9.6,1015.73,,80.45
2017-08-14 18:30,28.6,7.4,9.2,1015.72,,79.45
2017-08-14 18:40,28.7,7.5,8.7,1015.53,,79.45
2017-08-14 18:50,28.7,7.6,9.3,1015.43,,85.45
2017-08-14 19:00,28.8,7.5,8.9,1015.27,,84.45
2017-08-14 19:10,28.9,7.7,9.1,1015.22,,88.45
2017-08-14 19:20,28.8,7.2,8.6,1015.15,,82.45
2017-08-14 19:30,28.8,7.7,9.0,1015.12,,78.45
2017-08-14 19:40,28.5,8.0,9.5,1015.00,,73.45
2017-08-14 19:50,28.7,7.5,8.7,1015.02,,77.45
2017-08-14 20:00,28.9,8.3,9.8,1015.02,,84.45
2017-08-14 20:10,28.9,8.1,10.0,1015.06,,86.45
2017-08-14 20:20,28.7,6.6,7.7,1014.98,,88.45
2017-08-14 20:30,28.7,7.0,8.6,1014.94,,87.45
2017-08-14 20:40,28.7,7.2,8.6,1014.88,,90.45
2017-08-14 20:50,28.7,7.2,8.5,1015.01,,91.45
2017-08-14 21:00,28.8,6.7,8.5,1015.02,,91.45
2017-08-14 21:10,28.7,8.2,12.0,1015.12,,91.45
2017-08-14 21:20,28.4,8.9,11.0,1015.24,,85.45
2017-08-14 21:30,28.3,8.5,10.0,1015.31,,79.45
2017-08-14 21:40,28.1,8.0,9.9,1015.34,,79.45
2017-08-14 21:50,28.3,7.6,8.8,1015.34,,82.45
2017-08-14 22:00,28.3,6.5,7.7,1015.30,,80.45
2017-08-14 22:10,28.5,7.5,9.8,1015.22,,85.45
2017-08-14 22:20,28.8,8.5,10.2,1015.39,,88.45
2017-08-14 22:30,28.7,8.2,10.0,1015.49,,86.45
2017-08-14 22:40,28.6,8.7,10.1,1015.49,,88.45
2017-08-14 22:50,28.6,7.6,9.2,1015.47,,83.45
2017-08-14 23:00,28.7,8.3,9.9,1015.33,,85.45
2017-08-14 23:10,28.8,8.2,10.1,1015.36,,89.45
2017-08-14 23:20,28.9,8.7,10.7,1015.38,,94.45
2017-08-14 23:30,28.9,9.0,10.5,1015.35,,88.45
2017-08-14 23:40,28.9,9.0,10.9,1015.44,,89.45
2017-08-14 23:50,29.0,9.3,10.8,1015.64,,87.45
2017-08-15 00:00,29.0,8.9,11.0,1015.81,,90.45
2017-08-15 00:10,29.0,8.7,10.4,1015.92,,90.45
2017-08-15 00:20,28.9,8.8,10.7,1015.97,,88.45
2017-08-15 00:30,28.9,8.7,10.3,1016.04,,91.45
2017-08-15 00:40,28.9,8.8,11.1,1016.19,,86.45
2017-08-15 00:50,28.9,8.8,11.0,1016.32,,85.45
2017-08-15 01:00,28.9,9.0,10.7,1016.35,,94.45
2017-08-15 01:10,28.2,7.7,9.5,1016.48,,105.45
2017-08-15 01:20,28.5,7.5,9.5,1016.53,,95.45
2017-08-15 01:30,29.0,8.4,10.2,1016.49,,89.45
2017-08-15 01:40,29.0,8.2,9.8,1016.60,,91.45
2017-08-15 01:50,29.0,8.4,10.7,1016.72,,93.45
2017-08-15 02:00,29.0,8.9,10.8,1016.74,,90.45
2017-08-15 02:10,29.0,8.5,10.2,1016.72,,91.45
2017-08-15 02:20,29.0,8.8,10.9,1016.69,,93.45
2017-08-15 02:30,29.0,8.9,10.9,1016.60,,94.45
2017-08-15 02:40,29.0,8.7,10.7,1016.56,,95.45
2017-08-15 02:50,29.0,8.2,9.8,1016.51,,94.45
2017-08-15 03:00,28.9,8.3,10.0,1016.58,,91.45
2017-08-15 03:10,29.0,8.0,10.1,1016.62,,95.45
2017-08-15 03:20,28.9,8.2,9.5,1016.57,,91.45
2017-08-15 03:30,29.0,8.1,9.7,1016.55,,86.45
2017-08-15 03:40,29.0,7.7,9.3,1016.56,,88.45
2017-08-15 03:50,29.0,8.3,10.4,1016.52,,92.45
2017-08-15 04:00,28.9,8.5,10.8,1016.44,,89.45
2017-08-15 04:10,28.9,8.6,10.0,1016.36,,88.45
2017-08-15 04:20,28.9,8.4,10.2,1016.25,,95.45
2017-08-15 04:30,28.9,7.9,9.6,1016.20,,89.45
2017-08-15 04:40,28.9,7.9,9.8,1016.05,,90.45
2017-08-15 04:50,28.9,8.7,10.1,1015.91,,91.45
2017-08-15 05:00,28.8,8.2,9.9,1015.81,,91.45
2017-08-15 05:10,28.8,8.4,10.1,1015.68,,91.45
2017-08-15 05:20,28.9,8.4,10.6,1015.53,,91.45
2017-08-15 05:30,28.8,8.5,10.0,1015.40,,92.45
2017-08-15 05:40,28.8,8.5,10.2,1015.33,,92.45
2017-08-15 05:50,28.8,8.5,10.3,1015.25,,91.45
2017-08-15 06:00,28.8,9.1,10.4,1015.20,,92.45
2017-08-15 06:10,28.8,8.4,10.0,1015.10,,90.45
2017-08-15 06:20,28.7,8.6,10.7,1015.09,,87.45
2017-08-15 06:30,28.7,8.7,9.9,1015.08,,90.45
2017-08-15 06:40,28.7,8.6,10.3,1015.03,,92.45
2017-08-15 06:50,28.7,9.0,10.9,1014.96,,95.45
2017-08-15 07:00,28.5,8.7,10.3,1014.88,,106.45
2017-08-15 07:10,28.5,8.0,9.6,1014.92,,103.45
2017-08-15 07:20,28.6,7.6,9.2,1014.82,,103.45
2017-08-15 07:30,28.6,8.1,9.8,1014.81,,100.45
2017-08-15 07:40,28.7,8.7,11.7,1014.84,,101.45
2017-08-15 07:50,28.5,8.2,10.6,1014.97,,96.45
2017-08-15 08:00,28.7,8.1,9.7,1015.26,,95.45
2017-08-15 08:10,28.7,7.7,9.6,1015.37,,94.45
2017-08-15 08:20,28.2,8.1,11.0,1015.42,,91.45
2017-08-15 08:30,28.1,7.3,8.7,1015.44,,89.45
2017-08-15 08:40,28.3,7.8,9.4,1015.43,,88.45
2017-08-15 08:50,28.4,6.6,8.3,1015.58,,98.45
2017-08-15 09:00,28.5,6.5,7.6,1015.62,,99.45
2017-08-15 09:10,28.3,7.4,9.1,1015.66,,88.45
2017-08-15 09:20,28.4,6.5,7.9,1015.73,,90.45
2017-08-15 09:30,28.6,6.8,8.3,1015.75,,101.45
2017-08-15 09:40,28.7,7.4,9.0,1015.73,,99.45
2017-08-15 09:50,28.7,7.6,9.1,1015.82,,101.45
2017-08-15 10:00,28.8,8.1,9.6,1015.90,,107.45
2017-08-15 10:10,28.7,7.5,9.0,1015.91,,100.45
2017-08-15 10:20,28.7,7.8,9.3,1015.92,,99.45
2017-08-15 10:30,28.8,7.9,9.2,1016.06,,102.45
2017-08-15 10:40,28.8,7.7,9.0,1016.15,,105.45
2017-08-15 10:50,28.9,7.9,9.5,1016.18,,103.45
2017-08-15 11:00,28.9,7.8,9.2,1016.39,,98.45
2017-08-15 11:10,28.8,7.5,8.8,1016.52,,100.45
2017-08-15 11:20,28.9,7.2,8.9,1016.44,,104.45
2017-08-15 11:30,28.8,8.1,10.3,1016.48,,100.45
2017-08-15 11:40,28.9,8.4,9.8,1016.57,,100.45
2017-08-15 11:50,28.8,7.7,9.3,1016.56,,105.45
2017-08-15 12:00,28.8,7.3,9.3,1016.61,,104.45
2017-08-15 12:10,28.9,7.7,9.0,1016.67,,102.45
2017-08-15 12:20,29.0,7.3,9.0,1016.74,,105.45
2017-08-15 12:30,29.0,8.1,10.2,1016.79,,105.45
2017-08-15 12:40,29.1,8.5,10.3,1016.86,,106.45
2017-08-15 12:50,29.1,8.1,9.8,1016.96,,102.45
2017-08-15 13:00,29.1,8.1,9.7,1017.07,,98.45
2017-08-15 13:10,29.0,7.2,9.6,1017.12,,99.45
2017-08-15 13:20,29.0,7.9,9.3,1017.14,,99.45
2017-08-15 13:30,29.1,7.6,9.5,1017.18,,99.45
2017-08-15 13:40,29.1,7.7,9.3,1017.16,,95.45
2017-08-15 13:50,29.1,7.6,9.0,1017.24,,94.45
2017-08-15 14:00,29.1,7.7,9.0,1017.24,,95.45
2017-08-15 14:10,29.0,7.8,8.8,1017.33,,93.45
2017-08-15 14:20,29.1,7.6,9.0,1017.32,,95.45
2017-08-15 14:30,29.1,7.6,9.0,1017.32,,92.45
2017-08-15 14:40,29.1,7.2,8.5,1017.36,,95.45
2017-08-15 14:50,29.2,7.5,8.7,1017.25,,95.45
2017-08-15 15:00,29.2,8.0,9.4,1017.12,,99.45
2017-08-15 15:10,29.2,8.4,9.9,1016.96,,98.45
2017-08-15 15:20,29.1,8.2,9.6,1016.87,,99.45
2017-08-15 15:30,29.1,7.4,8.7,1016.81,,100.45
2017-08-15 15:40,29.1,6.9,8.5,1016.80,,101.45
2017-08-15 15:50,29.1,7.0,8.4,1016.67,,97.45
2017-08-15 16:00,29.1,6.9,8.5,1016.68,,93.45
2017-08-15 16:10,29.1,7.1,8.5,1016.65,,90.45
2017-08-15 16:20,29.1,7.7,9.3,1016.57,,89.45
2017-08-15 16:30,29.1,7.5,9.1,1016.45,,85.45
2017-08-15 16:40,29.1,7.1,8.7,1016.34,,92.45
2017-08-15 16:50,29.2,7.1,9.0,1016.26,,97.45
2017-08-15 17:00,29.2,7.2,8.5,1016.20,,100.45
2017-08-15 17:10,29.2,7.3,8.5,1016.13,,95.45
2017-08-15 17:20,29.2,8.0,10.2,1016.12,,98.45
2017-08-15 17:30,29.2,8.5,10.3,1016.05,,96.45
2017-08-15 17:40,29.2,7.9,9.6,1016.05,,94.45
2017-08-15 17:50,29.2,7.3,9.0,1015.94,,94.45
2017-08-15 18:00,29.2,7.8,10.1,1015.81,,95.45
2017-08-15 18:10,29.3,8.3,9.9,1015.70,,93.45
2017-08-15 18:20,29.3,8.1,9.5,1015.66,,94.45
2017-08-15 18:30,29.3,7.7,9.6,1015.64,,92.45
2017-08-15 18:40,29.2,7.5,9.5,1015.50,,87.45
2017-08-15 18:50,29.2,7.7,9.1,1015.40,,87.45
2017-08-15 19:00,29.2,7.7,9.1,1015.33,,85.45
2017-08-15 19:10,29.2,7.8,9.0,1015.26,,84.45
2017-08-15 19:20,29.3,7.4,9.0,1015.28,,90.45
2017-08-15 19:30,29.2,7.6,9.0,1015.32,,82.45
2017-08-15 19:40,29.2,7.1,9.2,1015.33,,79.45
2017-08-15 19:50,29.2,7.5,8.8,1015.31,,78.45
2017-08-15 20:00,29.3,7.4,8.9,1015.34,,86.45
2017-08-15 20:10,29.3,7.4,8.9,1015.30,,85.45
2017-08-15 20:20,29.2,7.6,8.9,1015.25,,86.45
2017-08-15 20:30,29.2,7.7,9.5,1015.19,,83.45
2017-08-15 20:40,29.2,7.9,9.7,1015.14,,79.45
2017-08-15 20:50,29.2,7.9,9.3,1015.13,,83.45
2017-08-15 21:00,29.2,7.7,9.0,1015.13,,80.45
2017-08-15 21:10,29.2,7.4,9.0,1015.17,,81.45
2017-08-15 21:20,29.2,7.5,9.6,1015.26,,82.45
2017-08-15 21:30,29.2,6.9,9.2,1015.33,,80.45
2017-08-15 21:40,29.2,6.7,8.3,1015.39,,79.45
2017-08-15 21:50,29.2,6.9,8.1,1015.33,,81.45
2017-08-15 22:00,29.1,7.4,8.7,1015.36,,71.45
2017-08-15 22:10,29.0,7.7,9.0,1015.38,,72.45
2017-08-15 22:20,29.0,7.8,9.2,1015.47,,67.45
2017-08-15 22:30,28.9,7.9,9.2,1015.47,,67.45
2017-08-15 22:40,29.0,8.0,9.6,1015.48,,71.45
2017-08-15 22:50,29.0,8.2,9.6,1015.59,,70.45
2017-08-15 23:00,29.0,8.4,9.9,1015.76,,64.45
2017-08-15 23:10,29.0,8.1,10.3,1015.82,,70.45
2017-08-15 23:20,29.0,8.2,9.9,1015.94,,73.45
2017-08-15 23:30,29.0,8.8,11.0,1015.99,,68.45
2017-08-15 23:40,29.0,8.6,10.3,1016.05,,74.45
2017-08-15 23:50,28.9,8.5,10.2,1016.15,,71.45
2017-08-16 00:00,28.9,8.6,10.2,1016.24,,73.45
2017-08-16 00:10,28.9,8.3,9.8,1016.31,,79.45
2017-08-16 00:20,28.9,8.1,10.1,1016.40,,77.45
2017-08-16 00:30,28.9,8.2,9.6,1016.51,,79.45
2017-08-16 00:40,28.9,8.4,10.2,1016.52,,79.45
2017-08-16 00:50,28.9,8.3,10.1,1016.58,,76.45
2017-08-16 01:00,28.9,8.2,10.7,1016.72,,75.45
2017-08-16 01:10,28.9,9.0,10.5,1016.79,,73.45
2017-08-16 01:20,28.9,8.6,10.6,1016.88,,75.45
2017-08-16 01:30,28.9,8.3,10.1,1016.92,,76.45
2017-08-16 01:40,28.9,8.5,10.3,1017.02,,80.45
2017-08-16 01:50,29.0,8.4,10.3,1017.11,,81.45
2017-08-16 02:00,28.9,8.3,10.1,1017.17,,78.45
2017-08-16 02:10,28.9,8.6,10.2,1017.27,,80.45
2017-08-16 02:20,28.9,8.9,10.5,1017.31,,84.45
2017-08-16 02:30,28.9,8.4,10.2,1017.22,,81.45
2017-08-16 02:40,28.9,8.4,10.3,1017.27,,82.45
2017-08-16 02:50,28.9,8.4,10.4,1017.31,,79.45
2017-08-16 03:00,28.9,8.1,10.3,1017.38,,79.45
2017-08-16 03:10,28.8,7.9,9.6,1017.36,,77.45
2017-08-16 03:20,28.8,7.8,9.5,1017.31,,82.45
2017-08-16 03:30,28.8,8.0,10.0,1017.21,,83.45
2017-08-16 03:40,28.8,8.2,9.9,1017.18,,89.45
2017-08-16 03:50,28.8,7.8,9.4,1017.16,,89.45
2017-08-16 04:00,28.8,8.0,10.1,1017.06,,87.45
2017-08-16 04:10,28.7,7.9,9.5,1016.94,,90.45
2017-08-16 04:20,28.7,7.2,8.7,1017.01,,85.45
2017-08-16 04:30,28.7,7.6,9.4,1016.95,,87.45
2017-08-16 04:40,28.7,8.0,9.6,1016.79,,87.45
2017-08-16 04:50,28.7,7.3,9.4,1016.68,,83.45
2017-08-16 05:00,28.7,7.7,9.3,1016.49,,88.45
2017-08-16 05:10,28.7,7.7,9.0,1016.34,,88.45
2017-08-16 05:20,28.7,7.6,9.4,1016.25,,82.45
2017-08-16 05:30,28.7,7.9,9.5,1016.08,,87.45
2017-08-16 05:40,28.6,7.9,9.2,1015.93,,80.45
2017-08-16 05:50,28.6,7.9,9.3,1015.89,,81.45
2017-08-16 06:00,28.6,7.4,9.3,1015.87,,83.45
2017-08-16 06:10,28.6,7.3,9.4,1015.73,,76.45
2017-08-16 06:20,28.6,8.3,10.5,1015.64,,73.45
2017-08-16 06:30,28.6,8.4,9.7,1015.63,,72.45